Location: Caltech
(34.1382°N, 118.1253°W)
Time: 12:53:53
(UTC-07:00)

Iridium 72 - Visible Passes

Search period start: 19 September 2014 00:00
Search period end: 29 September 2014 00:00
Orbit: 776 x 779 km, 86.4° (Epoch: 19 September)

Date Brightness Start Highest point End Pass type
(mag) Time Alt. Az. Time Alt. Az. Time Alt. Az.
19 Sep 6.2 19:09:07 10° SSE 19:13:43 33° E 19:18:19 10° NNE visible
19 Sep 7.9 20:50:23 10° SW 20:54:25 23° W 20:58:28 10° NNW visible
20 Sep 6.8 20:15:48 10° SSW 20:20:43 43° W 20:25:41 10° NNW visible
21 Sep 5.6 19:41:57 10° S 19:47:09 85° W 19:52:23 10° N visible
22 Sep 8.5 06:16:51 10° NNE 06:20:46 21° E 06:24:39 10° SE visible
22 Sep 5.7 19:08:43 10° SSE 19:13:42 49° E 19:18:42 10° NNE visible
22 Sep 8.5 20:51:42 10° WSW 20:54:40 15° WNW 20:57:38 10° NW visible
23 Sep 9.3 05:45:55 10° ENE 05:46:55 11° ENE 05:47:56 10° E visible
23 Sep 7.6 20:16:25 10° SW 20:20:54 29° W 20:25:24 10° NNW visible
24 Sep 6.3 19:42:10 10° SSW 19:47:15 57° W 19:52:23 10° N visible
25 Sep 7.8 06:16:22 10° NNE 06:20:58 31° E 06:25:32 10° SE visible
25 Sep 5.5 19:08:34 10° S 19:13:44 74° E 19:18:56 10° N visible
26 Sep 8.7 05:44:00 10° NE 05:47:13 16° ENE 05:50:25 10° ESE visible
26 Sep 8.3 20:17:23 10° SW 20:21:07 20° W 20:24:52 10° NNW visible
27 Sep 7.2 19:42:36 10° SSW 19:47:24 37° W 19:52:13 10° NNW visible
28 Sep 6.9 06:16:07 10° NNE 06:21:08 46° E 06:26:07 10° SSE visible
28 Sep 5.8 19:08:37 10° S 19:13:48 74° W 19:19:01 10° N visible
